Orbital Elements at Epoch 2459200.5 (2020-Dec-17.0) TDB
Reference: JPL 24 (heliocentric ecliptic J2000)
Element | Value | Uncertainty (1-sigma) | Units |
e | .1207462867086721 | 7.1944e-08 | |
a | 2.933336562229285 | 1.9672e-08 | au |
q | 2.579147064673317 | 2.1097e-07 | au |
i | 1.886158414251479 | 6.348e-06 | deg |
node | 15.07243153990796 | 0.00014213 | deg |
peri | 359.9960707589304 | 0.00014372 | deg |
M | 150.5202832433904 | 2.1193e-05 | deg |
tp | 2458433.255478189138 (2018-Nov-10.75547819) | 0.00010533 | TDB |
period | 1835.02197777082 5.02 | 1.8459e-05 5.054e-08 | d yr |
n | .1961829364230978 | 1.9735e-09 | deg/d |
Q | 3.287526059785253 | 2.2047e-08 | au |
|
| | Orbit Determination Parameters
Additional Information
|